Meadow Lake Airport
CYLJ : now visible

Airfield :











YOU CAN JOIN US ON...

 
LOGIN :

Register | Disclaimer

   EN    FR    IT 

 









Legend :    VFR   Marginal VFR   IFR   Intensive IFR   Very Intensive IFR
Visi :
Ceiling :
>= 8 km
>= 3000ft
5 to 8 km
1000 to 3000 ft
1500m to 5 km
500 to 1000 ft
800 to 1500m
200 to 500 ft
< 800m
< 200 ft
Symbols :   Thunderstorms  Fog  Heavy snow  Heavy precipitations  Wind > 20 kt






- Airport Elevation : 1576 ft
- IATA code : YLJ


CYLJ - Meadow Lake

CURRENT METAR :
  • 161800Z 30019G26KT 15SM BKN017 06/03 A2957 RMK CU8 SLP030

EXPIRED METARs :
  • 161739Z 30021G26KT 15SM BKN017 OVC026 06/03 A2956 RMK CU6SC2 SLP027
  • 161700Z 29018G23KT 12SM -RA BKN017 OVC026 06/04 A2954 RMK CU6SC2 SLP019
  • 161600Z 29018KT 12SM -RA OVC027 06/04 A2951 RMK SC8 SLP010

TAF N/A
CZWG FIR / North America



MET'MAP, your aeronautical weather chart ! - Copyright ORBIFLY December 2007 - Disclaimer

ORBIFLY MET'MAP TEAM :

Programming & Development : Alexandra Zaïnal
Concept & original design : Baudouin d'Aumeries
Assistance for programming : Marc-Olivier Méhu
Technical & hardware support : Manuel Goepfert

Contact : metmap@orbifly.com




SOURCES & CREDITS :

   NOAA       Earth
Advisory